Regional Weather Roundup
Issued by NWS

Home | Current Version | Previous Version | Graphics & Text | Print | Product List | Glossary On
Versions: 1 2 3 4 5 6 7 8 9 10 11 12 13 14 15 16 17 18 19 20 21 22 23 24 25 26 27 28 29 30 31 32 33 34 35 36 37 38 39 40 41 42 43 44 45 46 47 48 49 50
000
ASUS43 KMPX 041101
RWRMN
WEATHER ROUNDUP FOR MINNESOTA
NATIONAL WEATHER SERVICE TWIN CITIES/CHANHASSEN MN
600 AM CDT MON MAY 04 2015


NOTE: "FAIR" INDICATES FEW OR NO CLOUDS BELOW 12,000 FEET WITH NO
SIGNIFICANT WEATHER AND/OR OBSTRUCTIONS TO VISIBILITY. N/A MEANS
CURRENT SKY AND/OR WEATHER CONDITIONS ARE NOT AVAILABLE.

MNZ060>063-068>070-041200-
   Twin Cities Metro

CITY           SKY/WX    TMP DP  RH WIND       PRES   REMARKS
TWIN CITIES    FAIR      51  35  54 N7        30.08R
ST PAUL        CLEAR     50  36  58 NW7       30.09R
CRYSTAL        CLEAR     45  36  70 NW3       30.08R
BLAINE         CLEAR     46  37  71 CALM      30.08R
LAKEVILLE      FAIR      50  37  62 N5        30.08R
EDEN PRAIRIE   CLEAR     50  34  54 N6        30.07R
SOUTH ST PAUL  CLEAR     52  35  52 N6        30.08R
LAKE ELMO      FAIR      46  37  71 N3        30.08R
$$
MNZ001>005-007-008-013>017-022>024-027-028-041200-
   Northwest Minnesota

CITY           SKY/WX    TMP DP  RH WIND       PRES   REMARKS
BEMIDJI        CLEAR     33  28  83 CALM      30.13S
HALLOCK        CLEAR     34  30  86 CALM      30.15S
ROSEAU         CLEAR     32  27  80 CALM      30.15R
WARROAD        CLEAR     30  27  86 CALM      30.15R
THIEF RVR FALL CLEAR     37  32  81 CALM      30.15R
CROOKSTON      CLEAR     43  34  70 E7        30.15R
MOORHEAD       PTCLDY    37  27  65 CALM      30.15R
PARK RAPIDS    CLEAR     40  32  73 N3        30.12R
MAHNOMEN       FAIR      33  27  80 NE3       30.13R
$$
MNZ006-009>011-018-025>026-041200-
   North Central Minnesota

CITY           SKY/WX    TMP DP  RH WIND       PRES   REMARKS
BAUDETTE       CLEAR     35  34  96 W7        30.14R WCI  29
FLAG ISLAND    CLEAR     39  37  93 NW7       30.13R
INTL FALLS     CLEAR     34  32  92 NW3       30.11R
WASKISH        FAIR      41  39  93 NW6       30.13R
BIG FORK       CLEAR     30  28  93 CALM      30.12R
LONGVILLE      CLEAR     36  34  93 CALM      30.12R
GRAND RAPIDS   CLEAR     36  28  75 CALM      30.11R
CRANE LAKE     CLEAR     27  27 100 CALM      30.11R
COOK           CLEAR     30  30 100 CALM      30.10R
WALKER         FAIR      33  31  92 W3        30.12R
$$
MNZ012-019>021-037-041200-
   Northeast Minnesota

CITY           SKY/WX    TMP DP  RH WIND       PRES   REMARKS
DULUTH         CLEAR     44  34  67 NW7       30.07R
ELY            CLEAR     30  28  93 CALM      30.08R
HIBBING        CLEAR     35  30  82 NW5       30.09R WCI  31
EVELETH        CLEAR     32  30  93 CALM      30.09R
DULUTH HARBOR  CLEAR     48  37  66 N3        30.09R
TWO HARBORS    CLEAR     45  37  76 S3        30.04R
SILVER BAY     CLEAR     46  37  71 CALM      30.02R
GRAND MARAIS     N/A     47  37  68 S8        30.01R
G MARAIS ARPRT CLEAR     43  34  70 NW12G20   30.01R
$$
MNZ029>031-032-039>041-046>048-054>057-064-041200-
   West Central Minnesota

CITY           SKY/WX    TMP DP  RH WIND       PRES   REMARKS
FERGUS FALLS   CLEAR     45  30  57 NE5       30.14R
WHEATON        CLEAR     39  28  65 NW3       30.16R
MORRIS         CLEAR     36  28  75 NW3       30.12R
ALEXANDRIA     CLEAR     46  33  60 CALM      30.13R
ELBOW LAKE     FAIR      45  35  67 N3        30.13R
WADENA         CLEAR     36  28  75 CALM      30.12R
GLENWOOD       CLEAR     45  32  61 VRB6      30.12R
APPLETON       CLEAR     37  28  70 NW3       30.13R
BENSON         CLEAR     37  30  75 CALM      30.13R
ORTONVILLE     FAIR      43  30  61 NW3       30.13R
MADISON        CLEAR     37  28  70 NW6       30.13R
WILLMAR        FAIR      46  34  61 N8        30.13R
$$
MNZ033>034-036-042>043-049>051-058-059-041200-
   Central Minnesota

CITY           SKY/WX    TMP DP  RH WIND       PRES   REMARKS
ST CLOUD       CLEAR     39  31  72 NW6       30.09R
SAUK CENTRE    FAIR      38  32  78 CALM      30.11R
PAYNESVILLE    CLEAR     39  31  73 CALM      30.13R
AITKIN         CLEAR     32  27  80 CALM      30.09R
PINE RIVER     CLEAR     36  32  87 CALM      30.14R
BRAINERD       CLEAR     37  35  92 CALM      30.11R
STAPLES        CLEAR     36  30  80 CALM      30.11R
LONG PRAIRIE   FAIR      41  32  70 N3        30.13R
LITTLE FALLS   CLEAR     36  32  87 CALM      30.11R
LITCHFIELD     CLEAR     46  34  61 CALM      30.12R
BUFFALO        CLEAR     47  34  60 N3        30.11R
MAPLE LAKE     CLEAR     46  37  70 CALM      30.11R
$$
MNZ037-044-045-052-053-041200-
   East Central Minnesota

CITY           SKY/WX    TMP DP  RH WIND       PRES   REMARKS
PRINCETON      CLEAR     39  34  81 CALM      30.10R
MORA           CLEAR     45  34  65 N5        30.10R
CAMBRIDGE      CLEAR     46  34  61 CALM      30.08R
RUSH CITY      CLEAR     42  33  70 N3        30.09R
MOOSE LAKE     CLEAR     43  34  70 N5        30.07R
HINCKLEY       FAIR      45  34  65 N8        30.09R
CLOQUET        CLEAR     39  32  75 CALM      30.08R
MCGREGOR       CLEAR     36  32  87 CALM      30.10R
$$
MNZ071>073-080-081-089-090-097-098-041200-
   Southwest Minnesota

CITY           SKY/WX    TMP DP  RH WIND       PRES   REMARKS
MONTEVIDEO     CLEAR     41  28  60 NW3       30.14R
GRANITE FALLS  CLEAR     37  27  69 W5        30.14R
CANBY          CLEAR     43  28  55 W6        30.14R
MARSHALL       CLEAR     39  25  56 NW9       30.12R
REDWOOD FALLS  CLEAR     48  30  49 N7        30.10R
OLIVIA         CLEAR     41  27  56 NE6       30.11R
PIPESTONE      CLEAR     48  25  40 NE7       30.10R
WORTHINGTON    PTCLDY    45  27  49 N12       30.09R
JACKSON        MOCLDY    50  28  43 VRB8      30.07R
TRACY          CLEAR     47  28  47 NW9       30.11R
SLAYTON        CLEAR     43  27  53 CALM      30.11R
$$
MNZ065>067-074>077-082>085-091>093-041200-
   South Central Minnesota

CITY           SKY/WX    TMP DP  RH WIND       PRES   REMARKS
MANKATO          N/A    N/A N/A N/A MISG        N/A
NEW ULM        PTCLDY    50  30  46 N6        30.09R
ST JAMES       MOCLDY    45  30  57 NW5       30.09R
FAIRMONT       MOCLDY    50  30  46 N13       30.05R
GLENCOE        CLEAR     49  37  61 N3        30.09R
FARIBAULT      PTCLDY    52  39  62 N8        30.07R
OWATONNA       MOCLDY    54  39  58 N9        30.06R
WASECA         MOCLDY    52  41  66 N10       30.08R
ALBERT LEA     CLOUDY    54  45  71 N9        30.04R
$$
MNZ078>079-086>088-094>096-041200-
   Southeast Minnesota

CITY           SKY/WX    TMP DP  RH WIND       PRES   REMARKS
ROCHESTER      MOCLDY    53  43  68 N17       30.04R
RED WING       PTCLDY    54  37  54 NE7       30.05R
STANTON        PTCLDY    49  41  72 N6        30.06R
DODGE CENTER   MOCLDY    52  45  76 N10       30.04R
WINONA         PTCLDY    54  52  94 NW3       30.02R
AUSTIN         CLOUDY    52  45  76 N6        30.04R
PRESTON        MOCLDY    51  49  93 CALM      30.04R
$$
ABBREVIATIONS USED IN REMARKS
   TC - TEMPERATURES IN CELSIUS
  WCI - WIND CHILL INDEX
   HX - HEAT INDEX
  VSB - VISIBILITY
$$



USA.gov is the U.S. government's official web portal to all federal, state and local government web resources and services.